STARLINK-1276, 45368

Orbit data source: Space-Track

STARLINK-1276, 45368 is a payload satellite owned by SpaceX/Seattle (US) in LEO that was launched on Wed, 18 Mar 2020 UTC via an FALCON 9 launch vehicle from the Air Force Eastern Test Range (AFETR). Payloads include a variety of satellites, spacecraft, and rockets equipped with specific instruments for various scientific and technological missions. These include communications satellites like Starlink; space stations such as the ISS; scientific satellites like the Hubble; Earth observation satellites from companies like Planet Labs, Umbra, and HawkEye 360; GPS; miniature CubeSats for education and research; and military/defense satellites.

Loading next visibility...
STARLINK-1276 details
Identifier
45368, 2020-019J
Orbit
LEO
Last TLE update15 hours ago
Origin
Flag of USSpaceX/Seattle (US)
ManufacturerSpaceX/Seattle
MissionOperational Commercial Communications
Bus & MotorSTARLINK, Unknown motor
Mass260 kg wet, ~248 kg dry
Launch date (UTC)
2020-03-18 (5 years ago)
Launch vehicle
FALCON 9
Launch site
Air Force Eastern Test Range (AFETR)
Object type
Payload
Rocket body
Debris
Shape & HBRBox + 1 Pan, 8.86 m
Radar Cross Section13.562 m², Large (>1 m²)

Expand to show TLE details & history

TLE from 15 hours ago
0 STARLINK-1276
1 45368U 20019J   24361.19797620  .00021839  00000-0  14796-2 0  9997
2 45368  53.0555 335.0850 0001377  98.3530 261.7615 15.06421575263646
Epoch: 2024-12-26T04:45Z
Definitive object data (Epoch: 2024-12-26T04:45:05.143Z)
Latitude-0.00004°
Longitude168.63272°
Altitude548.161 km
Speed7.589 km/s
True Right ascension22h 20m 20s
True Declination0° 00' 00"
Sunlit
Object was in daylight at TLE epoch
Visualization TLE readout
Latitude-28.44006°
Longitude9.66834°
Altitude556.008 km
Speed7.583 km/s
Apparent Right ascension09h 50m 39s
Apparent Declination-38° 19' 05"
Sunlit
Object is in daylight
Visualization observer readout
Local Sidereal Time19:25:02
Azimuth261.408° W
Elevation-61.907°
Doppler factor1
Orbital elements
Apogee altitude548.37 km
Perigee altitude546.462 km
Semi-major axis6,925.553 km
Eccentricity0.0001377
Inclination53.0555°
RAAN335.085°
Arg. of periapsis98.353°
True anomaly261.74588°
Mean anomaly261.7615°
Eccentric anomaly261.75369°
Mean motion3.76584 °/min
BSTAR0.0014796
Orbital period95.6 mins
Loading maneuver chart data...
Loading historical data...
Loading historical data...
Loading historical data...
Loading historical data...
Loading historical data...
Loading historical data...
Loading historical data...

STARLINK-1276 Visibility forecast

Observer location: undefined°, undefined

Span
Click to sort rows by Start time (UTC) header in descending order
Start Az.
Max El. time (UTC)
Max El. Az.
Max El.
End time (UTC)
End Az.
5 mins2024-12-27 00:00:17.153Z172.929° S2024-12-27 00:03:17.153Z122.48° SE18.835°2024-12-27 00:05:17.153Z88.472° E
6 mins2024-12-27 01:39:17.153Z248.812° W2024-12-27 01:42:17.153Z328.622° NNW39.825°2024-12-27 01:45:17.153Z39.93° NE
5 mins2024-12-27 06:42:17.153Z348.158° N2024-12-27 06:44:17.153Z34.796° NE24.288°2024-12-27 06:47:17.153Z84.385° E
6 mins2024-12-27 08:21:17.153Z295.017° NW2024-12-27 08:23:17.153Z250.552° W38.465°2024-12-27 08:27:17.153Z147.73° SSE
|